P/2017 Y3 ( Leonard )

Japanese version
Home page
Updated on April 13, 2018

---------------------------------------------------------------------

* Profile

Discovery Date December 26, 2017
Magnitude 19.8 mag
Discoverer G. J. Leonard (Mount Lemmon)

* Pictures

* Orbital Elements

Epoch 2018 Feb. 11.0 TT = JDT 2458160.5
T 2018 Feb. 11.26002 TT                                 MPCW
q   1.2753762            (2000.0)            P               Q
n   0.03183057     Peri.   67.52844     -0.70382591     +0.68047622
a   9.8606708      Node   153.87389     -0.69045072     -0.72280203
e   0.8706603      Incl.   27.58576     +0.16705358     -0.12045472
P  30.96
From 69 observations 2017 Dec. 26-2018 Mar. 24, mean residual 0".5.

* Magnitudes Graph

        m1 = 16.0 + 5 log d + 10.0 log r

---------------------------------------------------------------------

The orbital elements are published on M.P.E.C. 2018-F152.
The magnitudes graphs are made with Comet for Windows.

---------------------------------------------------------------------

Copyright(C) Seiichi Yoshida (comet@aerith.net). All rights reserved.